GW3301 Weather Reports


time (UTC)temp
C
wind
direction
speed
KPH
gust
KPH
rain 1hr
cm
rain 24hr
cm
rain mn
cm
humidity
%
barometer
mb
20260509135148 9 0 0.0 3.2 0.00 0.00 0.00 72 1020.9
20260509134638 9 45 0.0 3.2 0.00 0.00 0.00 71 1021.2
20260509134128 9 0 0.0 3.2 0.00 0.00 0.00 74 1020.8
20260509133618 9 23 0.0 3.2 0.00 0.00 0.00 73 1020.8
20260509132607 8 45 0.0 6.4 0.00 0.00 0.00 73 1020.7
20260509132047 8 23 0.0 0.0 0.00 0.00 0.00 74 1020.7
20260509131539 8 23 0.0 3.2 0.00 0.00 0.00 75 1020.5
20260509130518 8 0 0.0 6.4 0.00 0.00 0.00 74 1020.3
20260509130016 8 23 0.0 0.0 0.00 0.00 0.00 77 1020.0
20260509125456 8 23 0.0 0.0 0.00 0.00 0.00 78 1020.2
20260509124443 8 23 0.0 0.0 0.00 0.00 0.00 79 1020.2
20260509123927 8 23 0.0 0.0 0.00 0.00 0.00 80 1019.7
20260509123416 8 0 0.0 0.0 0.00 0.00 0.00 81 1020.2
20260509122912 7 23 0.0 0.0 0.00 0.00 0.00 80 1020.2
20260509122357 7 23 0.0 0.0 0.00 0.00 0.00 82 1020.1
20260509121847 7 23 0.0 3.2 0.00 0.00 0.00 80 1020.1
20260509121336 7 23 0.0 6.4 0.00 0.00 0.00 81 1019.8
20260509120316 7 23 0.0 0.0 0.00 0.00 0.00 81 1019.5
20260509115805 7 23 0.0 0.0 0.00 0.00 0.00 80 1019.4
20260509115255 7 23 0.0 3.2 0.00 0.00 0.00 80 1019.0
20260509114745 7 45 0.0 3.2 0.00 0.00 0.00 79 1018.9
20260509114235 7 23 0.0 3.2 0.00 0.00 0.00 82 1018.4
20260509113216 7 23 0.0 6.4 0.00 0.00 0.00 83 1018.4
20260509112705 7 23 0.0 11.3 0.00 0.00 0.00 84 1018.8
20260509112155 7 45 0.0 11.3 0.00 0.00 0.00 85 1018.6
20260509111645 7 23 0.0 6.4 0.00 0.00 0.00 88 1018.4
20260509111135 7 23 0.0 3.2 0.00 0.00 0.00 88 1018.4
20260509110624 7 23 0.0 3.2 0.00 0.00 0.00 90 1018.2
20260509110114 6 23 0.0 3.2 0.00 0.00 0.00 90 1018.1
20260509105604 7 23 0.0 3.2 0.00 0.00 0.00 90 1018.1
20260509105054 7 23 0.0 3.2 0.00 0.00 0.00 90 1018.1
20260509104545 7 23 0.0 3.2 0.00 0.00 0.00 89 1017.8
20260509104034 6 23 0.0 0.0 0.00 0.00 0.00 89 1018.2
20260509103014 6 23 0.0 0.0 0.00 0.00 0.00 90 1018.2
20260509102504 6 23 0.0 0.0 0.00 0.00 0.00 91 1018.1
20260509101443 6 23 0.0 0.0 0.00 0.00 0.00 91 1017.7
20260509100933 6 23 0.0 0.0 0.00 0.00 0.00 91 1017.4
20260509100423 6 23 0.0 0.0 0.00 0.00 0.00 91 1017.1
20260509095403 6 23 0.0 0.0 0.00 0.00 0.00 90 1017.2
20260509094853 6 23 0.0 0.0 0.00 0.00 0.00 91 1016.9
20260509094353 6 23 0.0 0.0 0.00 0.00 0.00 91 1016.6
20260509093833 6 23 0.0 0.0 0.00 0.00 0.00 90 1016.6
20260509093322 6 23 0.0 0.0 0.00 0.00 0.00 90 1016.8
20260509092812 6 23 0.0 0.0 0.00 0.00 0.00 90 1016.9
20260509091752 6 23 0.0 0.0 0.00 0.00 0.00 90 1016.2
20260509091241 6 23 0.0 0.0 0.00 0.00 0.00 90 1015.8
20260509090732 6 23 0.0 0.0 0.00 0.00 0.00 89 1015.7
20260509090222 6 23 0.0 0.0 0.00 0.00 0.00 90 1015.7
20260509085711 6 23 0.0 3.2 0.00 0.00 0.00 89 1015.6
20260509085209 6 23 0.0 3.2 0.00 0.00 0.00 90 1015.5
20260509084652 6 23 0.0 0.0 0.00 0.00 0.00 91 1015.6
20260509084141 6 23 0.0 0.0 0.00 0.00 0.00 90 1015.3
20260509083632 6 23 0.0 0.0 0.00 0.00 0.00 90 1015.7
20260509083121 6 23 0.0 0.0 0.00 0.00 0.00 90 1015.5
20260509082611 6 23 0.0 0.0 0.00 0.00 0.00 90 1015.6
20260509082101 7 23 0.0 0.0 0.00 0.00 0.00 89 1015.3
20260509081551 7 23 0.0 0.0 0.00 0.00 0.00 89 1015.4
20260509080530 7 23 0.0 0.0 0.00 0.00 0.00 89 1015.4
20260509080021 7 23 0.0 3.2 0.00 0.00 0.00 90 1014.9
20260509075511 7 23 0.0 3.2 0.00 0.00 0.00 90 1014.8
20260509075001 7 23 0.0 6.4 0.00 0.00 0.00 91 1014.8
20260509074450 7 23 0.0 6.4 0.00 0.00 0.00 92 1014.7
20260509073940 7 23 3.2 6.4 0.00 0.00 0.00 93 1014.6
20260509073430 7 23 3.2 9.7 0.00 0.00 0.00 93 1014.6
20260509072919 7 23 3.2 9.7 0.00 0.00 0.00 93 1014.5
20260509072409 7 23 3.2 6.4 0.00 0.00 0.00 92 1014.8
20260509071350 7 45 3.2 9.7 0.00 0.00 0.00 90 1014.9
20260509070840 7 23 3.2 9.7 0.00 0.00 0.00 89 1014.7
20260509065819 7 45 6.4 11.3 0.00 0.00 0.00 90 1014.7
20260509065309 7 45 4.8 11.3 0.00 0.00 0.00 89 1015.0
20260509064759 7 45 4.8 9.7 0.00 0.00 0.00 89 1015.0
20260509064248 8 45 4.8 6.4 0.00 0.00 0.00 89 1015.0
20260509063739 8 45 3.2 6.4 0.00 0.00 0.00 89 1015.2
20260509063228 8 45 3.2 6.4 0.00 0.00 0.00 89 1015.5
20260509062718 8 45 3.2 6.4 0.00 0.00 0.00 89 1015.6
20260509062208 8 68 0.0 3.2 0.00 0.00 0.00 91 1015.8
20260509061658 8 68 0.0 3.2 0.00 0.00 0.00 91 1015.5
20260509061148 8 68 0.0 3.2 0.00 0.00 0.00 91 1015.7
20260509060638 8 68 0.0 0.0 0.00 0.00 0.00 91 1015.6
20260509060127 8 68 0.0 3.2 0.00 0.00 0.00 90 1015.8
20260509055617 8 68 0.0 3.2 0.00 0.00 0.00 89 1015.6
20260509055108 8 68 0.0 3.2 0.00 0.00 0.00 88 1015.5
20260509054558 8 68 0.0 3.2 0.00 0.00 0.00 88 1015.7
20260509054050 8 68 1.6 3.2 0.00 0.00 0.00 86 1015.5
20260509053539 9 68 1.6 3.2 0.00 0.00 0.00 85 1015.6
20260509053027 9 68 0.0 3.2 0.00 0.00 0.00 84 1015.8
20260509052517 9 68 0.0 3.2 0.00 0.00 0.00 83 1015.6
20260509052008 9 68 0.0 3.2 0.00 0.00 0.00 82 1015.7
20260509051457 10 68 0.0 6.4 0.00 0.00 0.00 82 1015.7
20260509050946 10 68 1.6 6.4 0.00 0.00 0.00 81 1015.8
20260509045927 10 68 0.0 6.4 0.00 0.00 0.00 79 1015.7
20260509045419 10 68 3.2 6.4 0.00 0.00 0.00 78 1015.6
20260509044906 10 113 1.6 3.2 0.00 0.00 0.00 78 1015.5
20260509043848 10 113 0.0 3.2 0.00 0.00 0.00 78 1015.4
20260509043335 10 113 0.0 0.0 0.00 0.00 0.00 77 1015.2
20260509042826 10 113 0.0 0.0 0.00 0.00 0.00 76 1015.2
20260509042316 11 113 0.0 0.0 0.00 0.00 0.00 76 1015.2
20260509041805 10 113 0.0 0.0 0.00 0.00 0.00 76 1015.1
20260509041255 11 113 0.0 0.0 0.00 0.00 0.00 78 1014.9
20260509040746 11 113 0.0 0.0 0.00 0.00 0.00 75 1015.0
20260509040235 11 113 0.0 3.2 0.00 0.00 0.00 75 1015.1
20260509035726 11 113 0.0 3.2 0.00 0.00 0.00 73 1014.9
20260509035215 11 113 0.0 3.2 0.00 0.00 0.00 73 1014.8
20260509034155 11 113 0.0 3.2 0.00 0.00 0.00 72 1014.9
20260509033644 11 113 1.6 3.2 0.00 0.00 0.00 72 1015.0
20260509033134 11 113 1.6 3.2 0.00 0.00 0.00 73 1014.9
20260509032624 11 113 0.0 3.2 0.00 0.00 0.00 72 1014.6
20260509032114 11 113 0.0 3.2 0.00 0.00 0.00 74 1014.7
20260509031604 11 113 0.0 3.2 0.00 0.00 0.00 75 1014.7
20260509031054 10 113 0.0 0.0 0.00 0.00 0.00 78 1014.5
20260509030544 10 113 0.0 0.0 0.00 0.00 0.00 78 1014.5
20260509030034 10 113 0.0 0.0 0.00 0.00 0.00 78 1014.5
20260509025523 10 113 0.0 0.0 0.00 0.00 0.00 77 1014.3
20260509025014 11 113 0.0 3.2 0.00 0.00 0.00 76 1014.4
20260509024504 11 113 0.0 3.2 0.00 0.00 0.00 74 1014.6
20260509023953 11 113 1.6 3.2 0.00 0.00 0.00 74 1014.5
20260509022934 11 113 0.0 3.2 0.00 0.00 0.00 74 1014.3
20260509022423 11 113 1.6 6.4 0.00 0.00 0.00 74 1014.3
20260509021912 11 113 3.2 6.4 0.00 0.00 0.00 73 1014.3
20260509021402 10 113 0.0 0.0 0.00 0.00 0.00 76 1014.5
20260509015833 11 113 0.0 0.0 0.00 0.00 0.00 75 1014.3
20260509015323 11 113 0.0 0.0 0.00 0.00 0.00 77 1014.2
20260509014812 11 113 0.0 3.2 0.00 0.00 0.00 75 1014.0
20260509014302 11 113 0.0 3.2 0.00 0.00 0.00 74 1014.4
20260509013752 11 113 0.0 3.2 0.00 0.00 0.00 74 1014.2
20260509013242 11 113 0.0 3.2 0.00 0.00 0.00 74 1014.0
20260509012223 11 113 0.0 3.2 0.00 0.00 0.00 73 1013.9
20260509011712 12 113 0.0 3.2 0.00 0.00 0.00 71 1013.8
20260509011202 12 113 1.6 3.2 0.00 0.00 0.00 70 1014.2
20260509010651 12 113 0.0 3.2 0.00 0.00 0.00 71 1014.0
20260509005632 12 113 1.6 3.2 0.00 0.00 0.00 72 1014.2
20260509004111 12 113 0.0 0.0 0.00 0.00 0.00 75 1013.6
20260509003550 12 113 0.0 0.0 0.00 0.00 0.00 73 1013.5
20260509003041 12 113 0.0 0.0 0.00 0.00 0.00 72 1013.6
20260509002020 12 113 0.0 0.0 0.00 0.00 0.00 71 1013.4
20260509001519 12 113 0.0 0.0 0.00 0.00 0.00 70 1013.2
20260509001000 12 113 0.0 0.0 0.00 0.00 0.00 68 1013.5
20260509000451 12 113 0.0 3.2 0.00 0.00 0.00 69 1013.4
20260508235430 13 113 0.0 3.2 0.00 0.00 0.00 67 1013.9
20260508234410 12 113 0.0 3.2 0.00 0.00 0.00 65 1013.5
20260508233906 13 113 0.0 3.2 0.00 0.00 0.00 66 1013.6
20260508233349 12 113 0.0 3.2 0.00 0.00 0.00 66 1013.3
20260508232840 12 113 0.0 3.2 0.00 0.00 0.00 71 1013.3
20260508232330 12 113 0.0 3.2 0.00 0.00 0.00 70 1013.6
20260508231309 13 113 0.0 3.2 0.00 0.00 0.00 68 1013.3
20260508230759 13 113 0.0 3.2 0.00 0.00 0.00 64 1013.3
20260508230249 13 113 0.0 3.2 0.00 0.00 0.00 64 1013.5
20260508225739 13 113 0.0 3.2 0.00 0.00 0.00 64 1013.4
20260508225228 13 113 1.6 3.2 0.00 0.00 0.00 64 1013.3
20260508224208 13 113 1.6 3.2 0.00 0.00 0.00 65 1013.7
20260508223658 13 113 0.0 6.4 0.00 0.00 0.00 64 1013.4
20260508223149 13 113 1.6 6.4 0.00 0.00 0.00 65 1013.8
20260508222641 13 90 1.6 3.2 0.00 0.00 0.00 68 1013.8
20260508221107 12 90 0.0 3.2 0.00 0.00 0.00 72 1013.5
20260508220602 12 90 0.0 3.2 0.00 0.00 0.00 73 1013.4
20260508220047 13 90 0.0 3.2 0.00 0.00 0.00 73 1013.2
20260508215537 13 90 1.6 3.2 0.00 0.00 0.00 72 1013.4
20260508215028 13 90 0.0 3.2 0.00 0.00 0.00 72 1013.2
20260508214540 13 90 0.0 3.2 0.00 0.00 0.00 72 1013.4
20260508213457 13 90 3.2 6.4 0.00 0.00 0.00 70 1013.5
20260508212947 13 90 1.6 6.4 0.00 0.00 0.00 70 1013.3
20260508212436 13 90 1.6 6.4 0.00 0.00 0.00 70 1013.3
20260508211420 13 90 1.6 3.2 0.00 0.00 0.00 70 1013.0
20260508210356 13 90 1.6 3.2 0.00 0.00 0.00 68 1012.9
20260508205848 14 90 1.6 3.2 0.00 0.00 0.00 68 1012.8
20260508205335 14 90 0.0 3.2 0.00 0.00 0.00 69 1012.9
20260508204318 14 90 0.0 3.2 0.00 0.00 0.00 67 1012.8
20260508203806 14 90 0.0 3.2 0.00 0.00 0.00 66 1012.8
20260508203256 14 90 0.0 3.2 0.00 0.00 0.00 65 1012.7
20260508202745 15 90 1.6 3.2 0.00 0.00 0.00 65 1012.7
20260508202235 15 90 0.0 3.2 0.00 0.00 0.00 63 1012.6
20260508201725 15 90 1.6 3.2 0.00 0.00 0.00 62 1012.7
20260508201215 15 90 1.6 3.2 0.00 0.00 0.00 62 1012.6
20260508200704 15 90 0.0 3.2 0.00 0.00 0.00 61 1012.7
20260508200159 15 90 0.0 3.2 0.00 0.00 0.00 62 1012.6
20260508195644 15 90 0.0 6.4 0.00 0.00 0.00 60 1012.5
20260508195143 15 90 1.6 6.4 0.00 0.00 0.00 60 1012.4
20260508194624 15 90 1.6 6.4 0.00 0.00 0.00 59 1012.2
20260508194115 15 68 1.6 3.2 0.00 0.00 0.00 59 1012.4
20260508193607 15 68 0.0 3.2 0.00 0.00 0.00 59 1012.0
20260508192550 15 68 1.6 6.4 0.00 0.00 0.00 61 1012.2
20260508192033 15 68 3.2 6.4 0.00 0.00 0.00 60 1012.0
20260508191013 16 68 1.6 6.4 0.00 0.00 0.00 59 1012.3
20260508190507 15 68 1.6 6.4 0.00 0.00 0.00 58 1012.3
20260508185953 15 68 3.2 6.4 0.00 0.00 0.00 58 1011.9
20260508185443 15 68 1.6 6.4 0.00 0.00 0.00 56 1012.2
20260508183439 16 45 3.2 9.7 0.00 0.00 0.00 48 1012.5
20260508182344 17 68 3.2 9.7 0.00 0.00 0.00 51 1012.5
20260508181833 17 113 1.6 11.3 0.00 0.00 0.00 48 1012.6
20260508181322 17 90 4.8 11.3 0.00 0.00 0.00 49 1012.9
20260508180812 17 113 3.2 6.4 0.00 0.00 0.00 50 1013.0
20260508180302 17 113 3.2 6.4 0.00 0.00 0.00 48 1012.8
20260508175753 17 90 1.6 11.3 0.00 0.00 0.00 51 1012.8
20260508175242 17 68 3.2 11.3 0.00 0.00 0.00 43 1012.8
20260508174732 17 68 3.2 9.7 0.00 0.00 0.00 44 1012.8
20260508174222 17 68 3.2 11.3 0.00 0.00 0.00 44 1012.8
20260508173712 17 68 6.4 11.3 0.00 0.00 0.00 46 1013.0
20260508173202 17 45 3.2 9.7 0.00 0.00 0.00 49 1013.0
20260508172651 17 113 3.2 6.4 0.00 0.00 0.00 54 1012.8
20260508172141 17 90 3.2 9.7 0.00 0.00 0.00 53 1013.1
20260508171632 17 45 3.2 12.9 0.00 0.00 0.00 57 1013.1
20260508171121 16 45 3.2 12.9 0.00 0.00 0.00 58 1012.9
20260508170611 17 68 3.2 12.9 0.00 0.00 0.00 55 1012.8
20260508170101 17 45 0.0 11.3 0.00 0.00 0.00 55 1012.9
20260508165041 17 45 1.6 9.7 0.00 0.00 0.00 47 1012.9
20260508164530 17 90 0.0 9.7 0.00 0.00 0.00 46 1012.7
20260508163510 17 45 3.2 9.7 0.00 0.00 0.00 44 1013.0
20260508163006 17 68 3.2 14.5 0.00 0.00 0.00 43 1013.1
20260508162450 17 23 6.4 14.5 0.00 0.00 0.00 42 1013.0
20260508161939 16 68 1.6 6.4 0.00 0.00 0.00 49 1013.1
20260508161430 16 90 3.2 6.4 0.00 0.00 0.00 48 1013.1
20260508160920 17 90 3.2 11.3 0.00 0.00 0.00 44 1013.1
20260508155900 16 68 3.2 11.3 0.00 0.00 0.00 47 1013.3
20260508155349 16 45 4.8 11.3 0.00 0.00 0.00 43 1013.2
20260508154839 16 338 6.4 9.7 0.00 0.00 0.00 44 1013.1
20260508154329 16 45 3.2 11.3 0.00 0.00 0.00 50 1013.4
20260508153819 16 45 3.2 11.3 0.00 0.00 0.00 42 1013.1
20260508153309 16 23 3.2 12.9 0.00 0.00 0.00 42 1013.4
20260508151229 16 90 3.2 6.4 0.00 0.00 0.00 55 1013.6
20260508150719 16 68 3.2 11.3 0.00 0.00 0.00 56 1013.9
20260508150208 16 68 6.4 11.3 0.00 0.00 0.00 55 1014.0
20260508145658 16 45 4.8 6.4 0.00 0.00 0.00 61 1014.2
20260508145148 15 23 3.2 11.3 0.00 0.00 0.00 63 1013.9
20260508144127 15 23 4.8 11.3 0.00 0.00 0.00 60 1014.5
20260508143617 15 68 3.2 9.7 0.00 0.00 0.00 65 1014.4
20260508143107 15 68 0.0 9.7 0.00 0.00 0.00 63 1014.7
20260508142558 15 113 3.2 6.4 0.00 0.00 0.00 63 1014.8
20260508142048 14 68 3.2 6.4 0.00 0.00 0.00 66 1014.9
20260508141538 14 45 3.2 6.4 0.00 0.00 0.00 66 1015.0
20260508140007 14 23 0.0 6.4 0.00 0.00 0.00 69 1014.8